Reflectivity
-20 -20 -20 -20 -20 -20 -20 -20 -20 -20 -20 -20 -20 -20 -20 -20 -20 -20 -10 -0 -16 -20 -20 -20 -20 -20 -20
-20 -20 -20 -20 -20 -20 -20 -20 -20 -20 -20 -20 -20 -20 -20 -20 -20 -20 -20 -20 -20 -20 -20 -20 -20 -20 -20
-20 -20 -20 -20 -20 -20 -20 -20 -20 -20 -20 -20 -20 -20 -20 -20 -20 -20 -20 -20 -20 -20 -20 -20 -20 -20 -20
-20 -20 -20 -20 -20 -20 -20 -20 -20 -20 -20 -20 -20 -20 -20 -20 -20 -20 -20 -20 -20 -20 -20 -20 -20 -20 -20
-20 -20 -20 -20 -20 -20 -20 -20 -20 -20 -20 -20 -20 -20 -20 -20 -20 -20 -20 -20 -20 -20 -20 -20 -20 -20 -20
-20 -20 -20 -20 -20 -20 -20 -20 -20 -20 -20 -20 -20 -20 -20 -20 -20 -20 -20 -20 -20 -20 -20 -20 -20 -20 -20
-20 -20 -20 -20 -20 -20 -20 -20 -20 -20 -20 -20 -20 -20 -20 -20 -20 -20 -20 -20 -20 -20 -20 -20 -20 -20 -20
-20 -20 -20 -20 -20 -20 -20 -20 -20 -20 -20 -20 -20 -20 -20 -20 -20 -20 -20 -20 -20 -20 -20 -20 -17 -20 -20
-20 -20 -20 -20 -20 -20 -20 -20 -20 -20 -20 -20 -20 -20 -20 -20 -20 -20 -20 -20 -20 -20 -20 -20 -20 -9 -20
-20 -20 -20 -20 -20 -20 -20 -20 -20 -20 -20 -20 -20 -20 -20 -20 -20 -20 -20 -20 -20 -20 -20 -20 -20 1 -20
-20 -20 -20 -20 -20 -20 -20 -20 -20 -20 -20 -20 -20 -20 -20 -10 -20 -20 -20 -20 -20 -20 -20 -20 -20 -20 -13
-20 -20 -20 -20 -20 -20 -20 -20 -20 -20 -20 -20 -20 -20 -20 -20 -8 -20 -20 -20 -20 -20 -20 -20 -20 -20 -13
-20 -20 -20 -20 -20 -20 -20 -20 -20 -20 -20 -20 -20 -20 -20 -20 -20 -20 -20 -20 -20 -20 -20 -20 -20 -20 -20
-20 -20 -20 -20 -20 -20 -20 -20 -20 -20 -20 -20 -20 -20 -20 -20 -20 -20 -20 -20 -20 -20 -20 -20 -20 -20 -20
-20 -20 -20 -20 -20 -20 -20 -20 -20 -20 -20 -20 -20 -20 -20 -20 -20 -20 -20 -20 -20 -20 -20 -20 -13 -20 -20
-20 -20 -20 -20 -20 -20 -20 -20 -20 -20 -20 -20 -20 -20 -20 -20 -20 -20 -20 -20 -20 -20 -20 -4 0 -20 -20
-20 -20 -20 -20 -20 -20 -20 -20 -20 -20 -20 -20 -20 -20 -20 -20 -20 -20 -12 -20 -7 -20 -20 -16 -11 -20 -20
Wind_Speed
1 1 2 2 3 3 3 3 4 6 8 8 8 8 8 8 9 8 10 9 10 11 11 11 11 12 13
1 2 3 2 2 3 3 3 3 6 6 8 8 8 7 8 8 8 8 9 10 10 11 11 12 13 14
3 1 2 2 3 2 3 3 3 8 8 9 8 8 9 9 11 10 8 8 8 8 9 10 11 12 13
3 3 2 2 2 2 3 2 3 4 5 8 10 10 11 12 12 11 9 8 8 9 10 11 11 13 14
3 2 2 2 2 2 2 2 2 3 3 3 3 3 4 8 9 11 10 8 9 9 11 12 12 12 13
2 2 2 1 1 1 1 2 2 1 4 4 2 4 4 4 10 11 12 12 10 10 10 10 12 12 12
3 2 2 1 1 1 0 1 2 3 2 3 1 3 3 5 12 13 13 12 12 12 10 12 11 12 13
3 3 3 3 4 3 3 2 2 3 2 2 1 3 3 4 13 13 13 13 14 13 10 11 13 14 15
2 4 4 3 2 2 2 2 3 2 2 2 2 3 3 4 4 7 14 14 16 16 16 17 18 19 7
3 4 5 5 6 1 2 2 1 2 1 1 2 3 4 2 2 5 4 11 17 19 20 21 21 7 3
1 1 2 3 3 3 1 3 2 3 4 2 1 2 2 5 3 2 3 6 5 8 16 19 20 17 7
1 1 1 1 2 3 4 3 2 4 5 3 3 2 2 4 8 2 3 5 4 6 6 12 19 21 21
2 2 1 1 2 2 3 3 3 4 3 3 2 3 2 5 6 4 8 3 5 6 6 6 7 7 8
2 1 1 1 1 0 1 2 1 4 5 5 5 4 3 5 6 7 6 6 5 7 7 7 7 7 8
2 1 2 1 1 1 1 2 2 3 4 4 6 7 6 7 7 7 6 7 7 8 8 8 8 8 8
2 2 2 2 2 2 2 2 3 5 5 4 5 6 3 5 11 7 6 6 6 6 6 8 10 9 7
3 3 3 2 5 2 4 4 5 5 5 4 3 1 7 9 5 10 5 6 6 7 6 6 9 10 8
Wind_Direction
92 37 64 69 26 24 29 32 3 5 13 17 17 15 19 21 15 8 10 358 354 349 347 349 350 349 346
103 58 77 36 37 27 7 31 5 344 7 18 16 18 14 6 0 355 355 350 346 342 342 345 344 343 341
111 76 71 31 35 17 26 357 343 8 8 21 12 9 11 2 0 348 344 342 337 340 343 341 339 336 335
76 79 83 27 63 53 12 1 336 358 16 39 20 11 359 353 344 337 331 328 334 336 336 333 334 333 329
83 79 60 53 56 346 19 332 347 17 0 353 347 333 325 335 324 318 317 309 320 327 330 330 332 329 327
84 97 90 93 54 42 13 20 340 24 4 317 319 314 308 306 317 328 325 313 304 317 323 333 328 329 329
126 159 139 145 119 3 354 198 251 291 353 288 272 306 299 307 318 315 320 322 325 319 328 319 318 316 323
147 183 198 215 196 191 205 240 264 268 187 261 295 295 304 298 311 313 317 314 314 316 319 312 316 316 317
122 225 244 344 351 99 314 72 309 279 244 191 294 287 268 281 299 348 347 331 323 315 312 309 310 305 316
7 8 8 340 335 104 172 182 215 326 283 210 283 332 323 280 284 328 310 305 308 308 307 306 303 296 273
128 342 326 316 311 327 273 217 187 226 278 346 325 296 215 295 266 274 277 286 289 295 299 299 298 295 286
141 263 301 324 340 341 327 319 267 255 279 286 223 203 206 285 294 291 297 276 273 278 277 289 297 298 298
208 230 210 270 306 335 331 330 316 312 309 288 234 262 192 266 286 282 301 282 264 274 281 279 279 282 287
188 210 271 334 307 279 306 321 337 298 287 279 288 276 264 257 274 284 280 279 288 278 274 279 282 276 267
164 203 233 239 276 336 269 290 220 277 297 300 289 279 262 260 278 270 272 269 268 274 282 282 279 276 270
190 198 211 219 246 267 247 222 263 284 282 278 300 317 313 268 255 264 268 272 276 275 283 288 292 283 270
190 210 215 214 298 265 276 278 281 279 275 270 273 176 298 290 279 289 305 305 284 286 283 283 286 286 279